| time (UTC) | temp F | wind direction | speed MPH | gust MPH | rain 1hr in | rain 24hr in | rain mn in | humidity % | barometer mb |
| 20260506005017 | 65 | 169 | 0.0 | 2.0 | 0.00 | 0.00 | 0.00 | 38 | 1015.2 |
| 20260506004538 | 66 | 168 | 1.0 | 2.0 | 0.00 | 0.00 | 0.00 | 39 | 1015.3 |
| 20260506004014 | 66 | 92 | 0.0 | 2.0 | 0.00 | 0.00 | 0.00 | 38 | 1015.2 |
| 20260506003516 | 67 | 173 | 0.0 | 2.0 | 0.00 | 0.00 | 0.00 | 38 | 1015.3 |
| 20260506003040 | 67 | 143 | 0.0 | 2.0 | 0.00 | 0.00 | 0.00 | 35 | 1015.2 |
| 20260506002514 | 67 | 143 | 0.0 | 2.0 | 0.00 | 0.00 | 0.00 | 38 | 1015.1 |
| 20260506002015 | 68 | 143 | 0.0 | 2.0 | 0.00 | 0.00 | 0.00 | 35 | 1015.1 |
| 20260506001541 | 68 | 143 | 0.0 | 2.0 | 0.00 | 0.00 | 0.00 | 36 | 1015.2 |
| 20260506001014 | 68 | 247 | 0.0 | 3.0 | 0.00 | 0.00 | 0.00 | 36 | 1015.3 |
| 20260506000515 | 68 | 200 | 1.0 | 3.0 | 0.00 | 0.00 | 0.00 | 34 | 1015.2 |
| 20260506000037 | 68 | 98 | 0.0 | 3.0 | 0.00 | 0.00 | 0.00 | 34 | 1015.3 |
| 20260505235516 | 68 | 99 | 0.0 | 3.0 | 0.00 | 0.00 | 0.00 | 34 | 1015.4 |
| 20260505235015 | 68 | 96 | 0.0 | 2.0 | 0.00 | 0.00 | 0.00 | 37 | 1015.4 |
| 20260505234538 | 68 | 112 | 0.0 | 3.0 | 0.00 | 0.00 | 0.00 | 36 | 1015.4 |
| 20260505234015 | 68 | 115 | 1.0 | 3.0 | 0.00 | 0.00 | 0.00 | 34 | 1015.5 |
| 20260505233515 | 68 | 132 | 0.0 | 2.0 | 0.00 | 0.00 | 0.00 | 35 | 1015.4 |
| 20260505233038 | 68 | 42 | 1.0 | 2.0 | 0.00 | 0.00 | 0.00 | 36 | 1015.6 |
| 20260505232514 | 68 | 79 | 1.0 | 2.0 | 0.00 | 0.00 | 0.00 | 34 | 1015.5 |
| 20260505232017 | 68 | 86 | 0.0 | 3.0 | 0.00 | 0.00 | 0.00 | 37 | 1015.5 |
| 20260505231542 | 68 | 74 | 1.0 | 3.0 | 0.00 | 0.00 | 0.00 | 34 | 1015.7 |
| 20260505231017 | 68 | 120 | 1.0 | 3.0 | 0.00 | 0.00 | 0.00 | 36 | 1015.7 |
| 20260505230517 | 68 | 113 | 1.0 | 3.0 | 0.00 | 0.00 | 0.00 | 34 | 1015.7 |
| 20260505230052 | 68 | 87 | 0.0 | 3.0 | 0.00 | 0.00 | 0.00 | 34 | 1015.6 |
| 20260505225516 | 68 | 128 | 1.0 | 4.0 | 0.00 | 0.00 | 0.00 | 34 | 1015.7 |
| 20260505225015 | 68 | 98 | 1.0 | 4.0 | 0.00 | 0.00 | 0.00 | 35 | 1015.8 |
| 20260505224539 | 67 | 56 | 0.0 | 4.0 | 0.00 | 0.00 | 0.00 | 34 | 1015.7 |
| 20260505224015 | 67 | 113 | 1.0 | 3.0 | 0.00 | 0.00 | 0.00 | 34 | 1015.8 |
| 20260505223515 | 68 | 101 | 2.0 | 4.0 | 0.00 | 0.00 | 0.00 | 35 | 1015.9 |
| 20260505223055 | 68 | 40 | 2.0 | 4.0 | 0.00 | 0.00 | 0.00 | 33 | 1015.9 |
| 20260505222515 | 68 | 71 | 1.0 | 4.0 | 0.00 | 0.00 | 0.00 | 37 | 1015.9 |
| 20260505222015 | 68 | 90 | 1.0 | 5.0 | 0.00 | 0.00 | 0.00 | 35 | 1016.0 |
| 20260505221538 | 67 | 98 | 2.0 | 5.0 | 0.00 | 0.00 | 0.00 | 36 | 1015.9 |
| 20260505221016 | 67 | 114 | 0.0 | 3.0 | 0.00 | 0.00 | 0.00 | 34 | 1016.0 |
| 20260505220515 | 67 | 91 | 1.0 | 3.0 | 0.00 | 0.00 | 0.00 | 35 | 1016.2 |
| 20260505220043 | 67 | 94 | 1.0 | 3.0 | 0.00 | 0.00 | 0.00 | 34 | 1016.2 |
| 20260505215515 | 67 | 105 | 1.0 | 3.0 | 0.00 | 0.00 | 0.00 | 35 | 1016.2 |
| 20260505215015 | 67 | 90 | 1.0 | 3.0 | 0.00 | 0.00 | 0.00 | 37 | 1016.2 |
| 20260505214537 | 66 | 42 | 0.0 | 3.0 | 0.00 | 0.00 | 0.00 | 36 | 1016.2 |
| 20260505214018 | 66 | 96 | 2.0 | 3.0 | 0.00 | 0.00 | 0.00 | 35 | 1016.3 |
| 20260505213514 | 66 | 61 | 1.0 | 4.0 | 0.00 | 0.00 | 0.00 | 35 | 1016.3 |
| 20260505213050 | 67 | 96 | 2.0 | 4.0 | 0.00 | 0.00 | 0.00 | 35 | 1016.5 |
| 20260505212519 | 67 | 55 | 2.0 | 6.0 | 0.00 | 0.00 | 0.00 | 35 | 1016.4 |
| 20260505212018 | 67 | 98 | 2.0 | 6.0 | 0.00 | 0.00 | 0.00 | 36 | 1016.4 |
| 20260505211542 | 67 | 148 | 1.0 | 3.0 | 0.00 | 0.00 | 0.00 | 38 | 1016.5 |
| 20260505211015 | 66 | 44 | 1.0 | 4.0 | 0.00 | 0.00 | 0.00 | 38 | 1016.6 |
| 20260505210518 | 66 | 80 | 1.0 | 4.0 | 0.00 | 0.00 | 0.00 | 35 | 1016.5 |
| 20260505210038 | 66 | 102 | 1.0 | 4.0 | 0.00 | 0.00 | 0.00 | 34 | 1016.7 |
| 20260505205517 | 66 | 106 | 2.0 | 3.0 | 0.00 | 0.00 | 0.00 | 36 | 1016.6 |
| 20260505205015 | 65 | 92 | 1.0 | 4.0 | 0.00 | 0.00 | 0.00 | 40 | 1016.6 |
| 20260505204548 | 65 | 37 | 2.0 | 4.0 | 0.00 | 0.00 | 0.00 | 37 | 1016.6 |
| 20260505204017 | 65 | 305 | 1.0 | 4.0 | 0.00 | 0.00 | 0.00 | 37 | 1016.7 |
| 20260505203516 | 65 | 94 | 1.0 | 4.0 | 0.00 | 0.00 | 0.00 | 36 | 1016.7 |
| 20260505203046 | 65 | 106 | 2.0 | 4.0 | 0.00 | 0.00 | 0.00 | 39 | 1017.0 |
| 20260505202515 | 64 | 105 | 2.0 | 4.0 | 0.00 | 0.00 | 0.00 | 37 | 1016.8 |
| 20260505202018 | 64 | 102 | 2.0 | 5.0 | 0.00 | 0.00 | 0.00 | 37 | 1016.8 |
| 20260505201543 | 64 | 46 | 2.0 | 5.0 | 0.00 | 0.00 | 0.00 | 39 | 1016.7 |
| 20260505201015 | 65 | 87 | 1.0 | 3.0 | 0.00 | 0.00 | 0.00 | 36 | 1016.8 |
| 20260505200703 | 65 | 107 | 1.0 | 5.0 | 0.00 | 0.00 | 0.00 | 37 | 1017.0 |
| 20260505200051 | 65 | 88 | 1.0 | 5.0 | 0.00 | 0.00 | 0.00 | 37 | 1017.0 |
| 20260505195520 | 65 | 59 | 2.0 | 4.0 | 0.00 | 0.00 | 0.00 | 39 | 1017.0 |
| 20260505195018 | 65 | 107 | 1.0 | 4.0 | 0.00 | 0.00 | 0.00 | 39 | 1017.0 |
| 20260505194604 | 64 | 42 | 2.0 | 4.0 | 0.00 | 0.00 | 0.00 | 39 | 1016.9 |
| 20260505194020 | 64 | 62 | 1.0 | 4.0 | 0.00 | 0.00 | 0.00 | 39 | 1017.1 |
| 20260505193522 | 63 | 139 | 2.0 | 5.0 | 0.00 | 0.00 | 0.00 | 39 | 1017.0 |
| 20260505193055 | 64 | 84 | 3.0 | 5.0 | 0.00 | 0.00 | 0.00 | 38 | 1017.3 |
| 20260505192519 | 64 | 55 | 2.0 | 4.0 | 0.00 | 0.00 | 0.00 | 41 | 1017.1 |
| 20260505192018 | 64 | 84 | 1.0 | 4.0 | 0.00 | 0.00 | 0.00 | 42 | 1017.2 |
| 20260505191600 | 64 | 92 | 1.0 | 4.0 | 0.00 | 0.00 | 0.00 | 42 | 1017.2 |
| 20260505191023 | 64 | 248 | 0.0 | 4.0 | 0.00 | 0.00 | 0.00 | 39 | 1017.1 |
| 20260505190524 | 63 | 98 | 2.0 | 4.0 | 0.00 | 0.00 | 0.00 | 41 | 1017.3 |
| 20260505190052 | 63 | 68 | 1.0 | 4.0 | 0.00 | 0.00 | 0.00 | 42 | 1017.2 |
| 20260505185527 | 63 | 30 | 1.0 | 5.0 | 0.00 | 0.00 | 0.00 | 42 | 1017.2 |
| 20260505185015 | 63 | 37 | 2.0 | 5.0 | 0.00 | 0.00 | 0.00 | 42 | 1017.2 |
| 20260505184548 | 62 | 352 | 0.0 | 4.0 | 0.00 | 0.00 | 0.00 | 45 | 1017.3 |
| 20260505184020 | 62 | 268 | 1.0 | 4.0 | 0.00 | 0.00 | 0.00 | 40 | 1017.3 |
| 20260505183520 | 63 | 270 | 2.0 | 4.0 | 0.00 | 0.00 | 0.00 | 40 | 1017.3 |
| 20260505183058 | 63 | 64 | 1.0 | 6.0 | 0.00 | 0.00 | 0.00 | 44 | 1017.4 |
| 20260505182519 | 63 | 36 | 3.0 | 6.0 | 0.00 | 0.00 | 0.00 | 46 | 1017.3 |
| 20260505182022 | 62 | 67 | 1.0 | 4.0 | 0.00 | 0.00 | 0.00 | 44 | 1017.2 |
| 20260505181553 | 62 | 24 | 2.0 | 4.0 | 0.00 | 0.00 | 0.00 | 44 | 1017.3 |
| 20260505181018 | 62 | 34 | 1.0 | 4.0 | 0.00 | 0.00 | 0.00 | 45 | 1017.1 |
| 20260505180522 | 62 | 94 | 2.0 | 4.0 | 0.00 | 0.00 | 0.00 | 43 | 1017.2 |
| 20260505180058 | 62 | 85 | 1.0 | 4.0 | 0.00 | 0.00 | 0.00 | 45 | 1017.1 |
| 20260505175518 | 62 | 32 | 2.0 | 4.0 | 0.00 | 0.00 | 0.00 | 43 | 1017.1 |
| 20260505175018 | 62 | 203 | 1.0 | 4.0 | 0.00 | 0.00 | 0.00 | 42 | 1017.0 |
| 20260505174552 | 61 | 114 | 1.0 | 4.0 | 0.00 | 0.00 | 0.00 | 42 | 1017.1 |
| 20260505174022 | 61 | 42 | 1.0 | 4.0 | 0.00 | 0.00 | 0.00 | 43 | 1017.0 |
| 20260505173519 | 61 | 106 | 0.0 | 3.0 | 0.00 | 0.00 | 0.00 | 41 | 1016.9 |
| 20260505173051 | 61 | 69 | 1.0 | 4.0 | 0.00 | 0.00 | 0.00 | 42 | 1017.0 |
| 20260505172518 | 60 | 73 | 2.0 | 4.0 | 0.00 | 0.00 | 0.00 | 42 | 1017.1 |
| 20260505172017 | 60 | 38 | 1.0 | 4.0 | 0.00 | 0.00 | 0.00 | 41 | 1017.0 |
| 20260505171550 | 60 | 106 | 1.0 | 6.0 | 0.00 | 0.00 | 0.00 | 38 | 1016.9 |
| 20260505171016 | 60 | 98 | 2.0 | 6.0 | 0.00 | 0.00 | 0.00 | 41 | 1017.0 |
| 20260505170518 | 60 | 26 | 1.0 | 3.0 | 0.00 | 0.00 | 0.00 | 40 | 1017.1 |
| 20260505170053 | 60 | 104 | 2.0 | 4.0 | 0.00 | 0.00 | 0.00 | 41 | 1017.1 |
| 20260505165521 | 61 | 108 | 2.0 | 4.0 | 0.00 | 0.00 | 0.00 | 41 | 1017.0 |
| 20260505165020 | 60 | 40 | 2.0 | 4.0 | 0.00 | 0.00 | 0.00 | 41 | 1016.9 |
| 20260505164559 | 60 | 104 | 2.0 | 4.0 | 0.00 | 0.00 | 0.00 | 41 | 1016.9 |
| 20260505164020 | 60 | 105 | 2.0 | 4.0 | 0.00 | 0.00 | 0.00 | 41 | 1016.8 |
| 20260505163520 | 59 | 103 | 2.0 | 4.0 | 0.00 | 0.00 | 0.00 | 42 | 1016.7 |
| 20260505163054 | 59 | 50 | 1.0 | 3.0 | 0.00 | 0.00 | 0.00 | 43 | 1016.8 |
| 20260505162519 | 58 | 104 | 2.0 | 3.0 | 0.00 | 0.00 | 0.00 | 43 | 1016.7 |
| 20260505162020 | 58 | 65 | 2.0 | 4.0 | 0.00 | 0.00 | 0.00 | 44 | 1016.7 |
| 20260505161545 | 58 | 100 | 1.0 | 4.0 | 0.00 | 0.00 | 0.00 | 44 | 1016.7 |
| 20260505161022 | 58 | 62 | 2.0 | 3.0 | 0.00 | 0.00 | 0.00 | 44 | 1016.8 |
| 20260505160516 | 58 | 88 | 1.0 | 4.0 | 0.00 | 0.00 | 0.00 | 45 | 1016.7 |
| 20260505153108 | 60 | 103 | 2.0 | 4.0 | 0.00 | 0.00 | 0.00 | 44 | 1016.7 |
| 20260505152515 | 60 | 92 | 1.0 | 3.0 | 0.00 | 0.00 | 0.00 | 41 | 1016.7 |
| 20260505152021 | 60 | 92 | 1.0 | 3.0 | 0.00 | 0.00 | 0.00 | 43 | 1016.5 |
| 20260505151556 | 60 | 78 | 1.0 | 3.0 | 0.00 | 0.00 | 0.00 | 45 | 1016.5 |
| 20260505151021 | 60 | 109 | 1.0 | 3.0 | 0.00 | 0.00 | 0.00 | 45 | 1016.5 |
| 20260505150518 | 60 | 104 | 1.0 | 3.0 | 0.00 | 0.00 | 0.00 | 42 | 1016.6 |
| 20260505140521 | 56 | 280 | 0.0 | 2.0 | 0.00 | 0.00 | 0.00 | 45 | 1016.0 |
| 20260505125017 | 55 | 209 | 0.0 | 1.0 | 0.00 | 0.00 | 0.00 | 44 | 1015.5 |
| 20260505124550 | 55 | 209 | 0.0 | 2.0 | 0.00 | 0.00 | 0.00 | 43 | 1015.5 |
| 20260505124017 | 55 | 209 | 0.0 | 2.0 | 0.00 | 0.00 | 0.00 | 43 | 1015.6 |
| 20260505123521 | 55 | 207 | 0.0 | 4.0 | 0.00 | 0.00 | 0.00 | 43 | 1015.5 |
| 20260505123050 | 55 | 255 | 1.0 | 4.0 | 0.00 | 0.00 | 0.00 | 43 | 1015.5 |
| 20260505122517 | 55 | 153 | 0.0 | 2.0 | 0.00 | 0.00 | 0.00 | 43 | 1015.5 |
| 20260505122018 | 55 | 150 | 1.0 | 2.0 | 0.00 | 0.00 | 0.00 | 43 | 1015.4 |
| 20260505121550 | 55 | 191 | 0.0 | 2.0 | 0.00 | 0.00 | 0.00 | 44 | 1015.4 |
| 20260505121018 | 55 | 190 | 0.0 | 2.0 | 0.00 | 0.00 | 0.00 | 43 | 1015.4 |
| 20260505120716 | 55 | 189 | 1.0 | 2.0 | 0.00 | 0.00 | 0.00 | 43 | 1015.3 |
| 20260505120035 | 55 | 188 | 0.0 | 2.0 | 0.00 | 0.00 | 0.00 | 43 | 1015.4 |
| 20260505115511 | 55 | 192 | 1.0 | 2.0 | 0.00 | 0.00 | 0.00 | 44 | 1015.4 |
| 20260505115014 | 55 | 235 | 0.0 | 2.0 | 0.00 | 0.00 | 0.00 | 44 | 1015.4 |
| 20260505114540 | 55 | 171 | 0.0 | 2.0 | 0.00 | 0.00 | 0.00 | 44 | 1015.4 |
| 20260505114012 | 54 | 232 | 0.0 | 2.0 | 0.00 | 0.00 | 0.00 | 44 | 1015.4 |
| 20260505113513 | 54 | 232 | 0.0 | 2.0 | 0.00 | 0.00 | 0.00 | 44 | 1015.4 |
| 20260505113030 | 54 | 233 | 0.0 | 2.0 | 0.00 | 0.00 | 0.00 | 45 | 1015.4 |
| 20260505112513 | 54 | 236 | 1.0 | 2.0 | 0.00 | 0.00 | 0.00 | 45 | 1015.4 |
| 20260505112010 | 55 | 237 | 0.0 | 2.0 | 0.00 | 0.00 | 0.00 | 45 | 1015.4 |
| 20260505111547 | 55 | 235 | 1.0 | 2.0 | 0.00 | 0.00 | 0.00 | 45 | 1015.3 |
| 20260505111013 | 55 | 221 | 0.0 | 2.0 | 0.00 | 0.00 | 0.00 | 44 | 1015.4 |
| 20260505110510 | 55 | 221 | 1.0 | 2.0 | 0.00 | 0.00 | 0.00 | 44 | 1015.4 |
| 20260505102010 | 55 | 259 | 0.0 | 2.0 | 0.00 | 0.00 | 0.00 | 44 | 1015.2 |
| 20260505101530 | 55 | 259 | 1.0 | 2.0 | 0.00 | 0.00 | 0.00 | 44 | 1015.2 |
| 20260505101012 | 55 | 259 | 0.0 | 2.0 | 0.00 | 0.00 | 0.00 | 44 | 1015.2 |
| 20260505100513 | 55 | 258 | 0.0 | 2.0 | 0.00 | 0.00 | 0.00 | 44 | 1015.3 |
| 20260505100041 | 55 | 258 | 1.0 | 2.0 | 0.00 | 0.00 | 0.00 | 44 | 1015.3 |
| 20260505095515 | 55 | 268 | 1.0 | 2.0 | 0.00 | 0.00 | 0.00 | 44 | 1015.2 |
| 20260505095012 | 56 | 264 | 1.0 | 2.0 | 0.00 | 0.00 | 0.00 | 44 | 1015.2 |
| 20260505094534 | 56 | 259 | 0.0 | 1.0 | 0.00 | 0.00 | 0.00 | 44 | 1015.1 |
| 20260505094014 | 56 | 259 | 0.0 | 2.0 | 0.00 | 0.00 | 0.00 | 43 | 1015.1 |
| 20260505093513 | 56 | 259 | 0.0 | 2.0 | 0.00 | 0.00 | 0.00 | 42 | 1015.1 |
| 20260505093034 | 56 | 261 | 0.0 | 1.0 | 0.00 | 0.00 | 0.00 | 43 | 1015.1 |
| 20260505092513 | 56 | 265 | 0.0 | 2.0 | 0.00 | 0.00 | 0.00 | 42 | 1015.1 |
| 20260505092011 | 56 | 265 | 0.0 | 2.0 | 0.00 | 0.00 | 0.00 | 42 | 1015.1 |
| 20260505091547 | 56 | 266 | 0.0 | 1.0 | 0.00 | 0.00 | 0.00 | 42 | 1015.1 |
| 20260505091012 | 56 | 269 | 0.0 | 2.0 | 0.00 | 0.00 | 0.00 | 42 | 1015.1 |
| 20260505090513 | 57 | 269 | 0.0 | 2.0 | 0.00 | 0.00 | 0.00 | 42 | 1015.1 |
| 20260505090050 | 57 | 269 | 0.0 | 2.0 | 0.00 | 0.00 | 0.00 | 42 | 1015.1 |
| 20260505085514 | 57 | 265 | 0.0 | 2.0 | 0.00 | 0.00 | 0.00 | 42 | 1015.1 |
| 20260505085010 | 57 | 268 | 1.0 | 2.0 | 0.00 | 0.00 | 0.00 | 42 | 1015.1 |
| 20260505084537 | 57 | 252 | 0.0 | 2.0 | 0.00 | 0.00 | 0.00 | 42 | 1015.1 |
| 20260505084014 | 57 | 251 | 0.0 | 2.0 | 0.00 | 0.00 | 0.00 | 42 | 1015.1 |
| 20260505083515 | 57 | 250 | 0.0 | 2.0 | 0.00 | 0.00 | 0.00 | 42 | 1015.1 |
| 20260505083042 | 57 | 266 | 0.0 | 2.0 | 0.00 | 0.00 | 0.00 | 42 | 1014.9 |
| 20260505082513 | 57 | 271 | 0.0 | 2.0 | 0.00 | 0.00 | 0.00 | 43 | 1014.9 |
| 20260505082013 | 57 | 271 | 1.0 | 2.0 | 0.00 | 0.00 | 0.00 | 42 | 1014.9 |
| 20260505081548 | 57 | 270 | 1.0 | 2.0 | 0.00 | 0.00 | 0.00 | 42 | 1014.9 |
| 20260505081010 | 57 | 273 | 1.0 | 2.0 | 0.00 | 0.00 | 0.00 | 42 | 1014.9 |
| 20260505080512 | 57 | 273 | 1.0 | 2.0 | 0.00 | 0.00 | 0.00 | 42 | 1014.9 |
| 20260505080041 | 57 | 279 | 1.0 | 3.0 | 0.00 | 0.00 | 0.00 | 42 | 1014.8 |
| 20260505075513 | 57 | 278 | 1.0 | 4.0 | 0.00 | 0.00 | 0.00 | 42 | 1014.9 |
| 20260505075013 | 57 | 246 | 1.0 | 4.0 | 0.00 | 0.00 | 0.00 | 42 | 1014.9 |
| 20260505074543 | 57 | 286 | 1.0 | 3.0 | 0.00 | 0.00 | 0.00 | 42 | 1014.9 |
| 20260505074013 | 57 | 275 | 1.0 | 2.0 | 0.00 | 0.00 | 0.00 | 43 | 1014.9 |
| 20260505073511 | 57 | 277 | 0.0 | 2.0 | 0.00 | 0.00 | 0.00 | 42 | 1014.9 |
| 20260505073034 | 57 | 281 | 0.0 | 2.0 | 0.00 | 0.00 | 0.00 | 42 | 1014.9 |
| 20260505072510 | 57 | 281 | 0.0 | 2.0 | 0.00 | 0.00 | 0.00 | 43 | 1014.8 |
| 20260505072011 | 57 | 285 | 0.0 | 2.0 | 0.00 | 0.00 | 0.00 | 42 | 1014.6 |
| 20260505071535 | 57 | 285 | 1.0 | 2.0 | 0.00 | 0.00 | 0.00 | 43 | 1014.6 |
| 20260505071011 | 57 | 286 | 0.0 | 2.0 | 0.00 | 0.00 | 0.00 | 42 | 1014.5 |
| 20260505070511 | 57 | 286 | 0.0 | 2.0 | 0.00 | 0.00 | 0.00 | 42 | 1014.5 |
| 20260505070033 | 57 | 286 | 0.0 | 2.0 | 0.00 | 0.00 | 0.00 | 42 | 1014.6 |
| 20260505065512 | 57 | 287 | 0.0 | 2.0 | 0.00 | 0.00 | 0.00 | 41 | 1014.5 |
| 20260505065013 | 57 | 287 | 0.0 | 2.0 | 0.00 | 0.00 | 0.00 | 41 | 1014.5 |
| 20260505064535 | 57 | 300 | 1.0 | 2.0 | 0.00 | 0.00 | 0.00 | 42 | 1014.4 |
| 20260505064013 | 57 | 298 | 0.0 | 2.0 | 0.00 | 0.00 | 0.00 | 41 | 1014.6 |
| 20260505063513 | 57 | 301 | 0.0 | 2.0 | 0.00 | 0.00 | 0.00 | 42 | 1014.6 |
| 20260505063040 | 57 | 301 | 0.0 | 2.0 | 0.00 | 0.00 | 0.00 | 42 | 1014.5 |
| 20260505062513 | 57 | 300 | 1.0 | 2.0 | 0.00 | 0.00 | 0.00 | 42 | 1014.6 |
| 20260505062011 | 57 | 297 | 1.0 | 2.0 | 0.00 | 0.00 | 0.00 | 42 | 1014.5 |
| 20260505061538 | 57 | 290 | 0.0 | 2.0 | 0.00 | 0.00 | 0.00 | 42 | 1014.4 |
| 20260505061010 | 57 | 284 | 0.0 | 2.0 | 0.00 | 0.00 | 0.00 | 42 | 1014.5 |
| 20260505060512 | 57 | 284 | 0.0 | 2.0 | 0.00 | 0.00 | 0.00 | 42 | 1014.3 |
| 20260505060040 | 57 | 292 | 1.0 | 2.0 | 0.00 | 0.00 | 0.00 | 42 | 1014.4 |
| 20260505055514 | 58 | 262 | 0.0 | 2.0 | 0.00 | 0.00 | 0.00 | 42 | 1014.3 |
| 20260505055015 | 58 | 276 | 0.0 | 3.0 | 0.00 | 0.00 | 0.00 | 42 | 1014.3 |
| 20260505054536 | 58 | 277 | 0.0 | 3.0 | 0.00 | 0.00 | 0.00 | 42 | 1014.4 |
| 20260505054015 | 58 | 250 | 0.0 | 2.0 | 0.00 | 0.00 | 0.00 | 42 | 1014.4 |
| 20260505053513 | 58 | 239 | 0.0 | 2.0 | 0.00 | 0.00 | 0.00 | 41 | 1014.5 |
| 20260505053032 | 58 | 277 | 0.0 | 2.0 | 0.00 | 0.00 | 0.00 | 42 | 1014.4 |
| 20260505052513 | 58 | 271 | 0.0 | 3.0 | 0.00 | 0.00 | 0.00 | 42 | 1014.4 |
| 20260505052011 | 58 | 271 | 0.0 | 3.0 | 0.00 | 0.00 | 0.00 | 41 | 1014.5 |
| 20260505051532 | 58 | 277 | 0.0 | 2.0 | 0.00 | 0.00 | 0.00 | 41 | 1014.5 |
| 20260505051012 | 58 | 277 | 1.0 | 3.0 | 0.00 | 0.00 | 0.00 | 40 | 1014.5 |
| 20260505050512 | 58 | 278 | 0.0 | 3.0 | 0.00 | 0.00 | 0.00 | 40 | 1014.4 |
| 20260505041538 | 58 | 305 | 0.0 | 3.0 | 0.00 | 0.00 | 0.00 | 42 | 1014.2 |
| 20260505041014 | 58 | 309 | 0.0 | 3.0 | 0.00 | 0.00 | 0.00 | 42 | 1014.2 |
| 20260505040512 | 58 | 310 | 1.0 | 2.0 | 0.00 | 0.00 | 0.00 | 42 | 1014.0 |
| 20260505040039 | 58 | 310 | 1.0 | 2.0 | 0.00 | 0.00 | 0.00 | 42 | 1014.0 |
| 20260505035512 | 58 | 305 | 1.0 | 2.0 | 0.00 | 0.00 | 0.00 | 42 | 1014.0 |
| 20260505035014 | 58 | 309 | 1.0 | 2.0 | 0.00 | 0.00 | 0.00 | 42 | 1014.0 |
| 20260505034538 | 59 | 309 | 0.0 | 2.0 | 0.00 | 0.00 | 0.00 | 41 | 1013.9 |
| 20260505034013 | 59 | 310 | 1.0 | 2.0 | 0.00 | 0.00 | 0.00 | 42 | 1013.9 |
| 20260505033517 | 59 | 313 | 1.0 | 2.0 | 0.00 | 0.00 | 0.00 | 42 | 1013.7 |
| 20260505033045 | 59 | 300 | 1.0 | 2.0 | 0.00 | 0.00 | 0.00 | 42 | 1013.5 |
| 20260505032513 | 59 | 324 | 1.0 | 3.0 | 0.00 | 0.00 | 0.00 | 42 | 1013.6 |
| 20260505032014 | 59 | 319 | 1.0 | 3.0 | 0.00 | 0.00 | 0.00 | 43 | 1013.5 |
| 20260505031538 | 59 | 325 | 1.0 | 3.0 | 0.00 | 0.00 | 0.00 | 42 | 1013.4 |
| 20260505031014 | 59 | 318 | 1.0 | 3.0 | 0.00 | 0.00 | 0.00 | 42 | 1013.4 |
| 20260505030514 | 59 | 333 | 0.0 | 3.0 | 0.00 | 0.00 | 0.00 | 42 | 1013.4 |
| 20260505030040 | 60 | 323 | 0.0 | 3.0 | 0.00 | 0.00 | 0.00 | 41 | 1013.3 |
| 20260505025517 | 60 | 352 | 0.0 | 3.0 | 0.00 | 0.00 | 0.00 | 41 | 1013.3 |
| 20260505025012 | 60 | 261 | 1.0 | 3.0 | 0.00 | 0.00 | 0.00 | 41 | 1013.3 |
| 20260505024557 | 60 | 314 | 0.0 | 2.0 | 0.00 | 0.00 | 0.00 | 41 | 1013.2 |
| 20260505024012 | 60 | 5 | 0.0 | 3.0 | 0.00 | 0.00 | 0.00 | 42 | 1013.2 |
| 20260505023513 | 60 | 335 | 1.0 | 2.0 | 0.00 | 0.00 | 0.00 | 41 | 1013.2 |
| 20260505023043 | 61 | 198 | 0.0 | 3.0 | 0.00 | 0.00 | 0.00 | 41 | 1013.2 |
| 20260505022514 | 61 | 19 | 1.0 | 3.0 | 0.00 | 0.00 | 0.00 | 40 | 1013.2 |
| 20260505022013 | 61 | 9 | 0.0 | 3.0 | 0.00 | 0.00 | 0.00 | 41 | 1013.2 |
| 20260505021601 | 61 | 24 | 1.0 | 3.0 | 0.00 | 0.00 | 0.00 | 40 | 1013.4 |
| 20260505021013 | 62 | 19 | 0.0 | 3.0 | 0.00 | 0.00 | 0.00 | 40 | 1013.2 |
| 20260505020515 | 62 | 32 | 0.0 | 3.0 | 0.00 | 0.00 | 0.00 | 38 | 1013.1 |
| 20260505020045 | 62 | 32 | 0.0 | 3.0 | 0.00 | 0.00 | 0.00 | 39 | 1013.2 |
| 20260505015519 | 62 | 27 | 0.0 | 3.0 | 0.00 | 0.00 | 0.00 | 40 | 1013.3 |
| 20260505015015 | 62 | 36 | 1.0 | 3.0 | 0.00 | 0.00 | 0.00 | 37 | 1013.2 |
| 20260505014539 | 62 | 96 | 0.0 | 3.0 | 0.00 | 0.00 | 0.00 | 40 | 1013.2 |
| 20260505014013 | 63 | 36 | 0.0 | 3.0 | 0.00 | 0.00 | 0.00 | 38 | 1013.2 |
| 20260505013515 | 63 | 22 | 0.0 | 3.0 | 0.00 | 0.00 | 0.00 | 38 | 1013.3 |
| 20260505013043 | 63 | 28 | 1.0 | 3.0 | 0.00 | 0.00 | 0.00 | 39 | 1013.3 |
| 20260505012519 | 63 | 36 | 0.0 | 2.0 | 0.00 | 0.00 | 0.00 | 40 | 1013.4 |
| 20260505012015 | 63 | 40 | 1.0 | 3.0 | 0.00 | 0.00 | 0.00 | 37 | 1013.3 |
| 20260505011551 | 63 | 32 | 0.0 | 3.0 | 0.00 | 0.00 | 0.00 | 39 | 1013.4 |
| 20260505011014 | 63 | 36 | 0.0 | 2.0 | 0.00 | 0.00 | 0.00 | 40 | 1013.4 |
| 20260505010511 | 63 | 344 | 0.0 | 2.0 | 0.00 | 0.00 | 0.00 | 38 | 1013.4 |
| 20260505010040 | 64 | 343 | 0.0 | 2.0 | 0.00 | 0.00 | 0.00 | 39 | 1013.5 |
| 20260505005516 | 64 | 51 | 0.0 | 2.0 | 0.00 | 0.00 | 0.00 | 37 | 1013.5 |